[[{"header":{"parameterUnit":"m.s-1","parameterCategory":2,"la1":30.2991,"la2":30.254,"lo1":-89.0895,"lo2":-89.0444,"dy":0.0017,"dx":0.0017,"nx":28,"ny":28,"refTime":"2025-05-28T03:00:00:Z","depth":"0","parameterNumber":2,"parameterNumberName":"U-component_of_CURRENTS"},"data":[0,0,0,0,0,0,0,0,0,0,0,0,0,0,0,0,0,0,0,0,0,0,0,0,0,0,0,0,0,0,0,0,0,0,0,0,0,0,0,0,0,0,0,0,0,0,0,0,0,0,0,0,0,0,0,0,0,0,-0.3283,-0.3284,0,-0.3288,-0.3288,-0.3287,-0.3175,-0.3173,-0.3171,-0.3169,-0.3013,-0.301,-0.3008,0,0,0,0,0,0,0,0,0,0,0,0,0,-0.2957,-0.2964,-0.3283,-0.3284,-0.3284,-0.3288,-0.3288,-0.3287,-0.3176,-0.3173,-0.317,-0.3168,-0.3013,-0.3011,-0.3008,0,0,0,0,0,0,0,0,0,0,0,0,0,-0.3036,-0.2966,-0.3282,-0.3236,-0.3233,-0.3289,-0.3288,-0.3287,-0.3176,-0.3173,-0.317,-0.3167,-0.3014,-0.3011,-0.3008,-0.3053,0,0,-0.2998,-0.2997,0,0,0,0,0,0,0,0,-0.3032,-0.3047,-0.3242,-0.324,-0.3236,-0.3236,-0.3116,-0.3204,-0.3177,-0.3188,-0.3169,-0.3165,-0.3081,-0.3072,-0.3069,-0.3046,-0.3039,-0.2998,-0.2996,-0.2994,-0.2993,0,0,0,0,0,0,0,-0.3027,-0.3045,-0.3275,-0.3244,-0.324,-0.3141,-0.3149,-0.3131,-0.3142,-0.3187,-0.3181,-0.3197,-0.3076,-0.3073,-0.3064,-0.3037,-0.2998,-0.2995,-0.2993,-0.2992,-0.2966,-0.2967,0,0,0,0,0,0,-0.3062,-0.3042,-0.3275,-0.3277,-0.3134,-0.3151,-0.316,-0.3232,-0.3146,-0.3134,-0.32,-0.3192,-0.308,-0.3068,-0.3058,-0.3044,-0.2994,-0.2991,-0.2989,-0.2965,-0.2966,-0.2968,0,0,0,0,0,0,-0.3055,-0.3085,-0.3275,-0.3161,-0.318,-0.3163,-0.3242,-0.3234,-0.3217,-0.316,-0.3141,-0.3191,-0.3077,-0.3063,-0.303,-0.3039,-0.299,-0.2987,-0.2963,-0.2965,-0.2967,-0.3055,0,0,0,0,0,0,-0.3047,-0.3084,-0.313,-0.3167,-0.3189,-0.3309,-0.3246,-0.3236,-0.3237,-0.3226,-0.3147,-0.3129,-0.3073,-0.3035,-0.3027,-0.3033,-0.2984,-0.2962,-0.2964,-0.2967,-0.305,-0.3059,-0.3067,0,0,0,0,0,-0.3036,-0.3118,-0.3134,-0.316,-0.3262,-0.3312,-0.3313,-0.3278,-0.324,-0.3246,-0.3185,-0.3131,-0.3043,-0.3034,-0.3024,-0.303,-0.2961,-0.2964,-0.2966,-0.3046,-0.3057,-0.3067,0,0,0,0,0,0,-0.2976,-0.3117,-0.3134,-0.3249,-0.328,-0.3296,-0.3302,-0.329,-0.3251,-0.3226,-0.3152,-0.3133,-0.311,-0.3068,-0.3059,-0.3031,-0.2992,-0.2993,-0.3057,-0.3066,-0.3075,-0.3068,-0.2982,0,0,0,0,0,-0.3002,-0.3095,-0.319,-0.3258,-0.3296,-0.3301,-0.3311,-0.3302,-0.3286,-0.3265,-0.3214,-0.3158,-0.3122,-0.309,-0.3059,-0.3048,-0.2992,-0.3044,-0.3053,-0.306,-0.3049,-0.3018,-0.3023,-0.2977,-0.2977,-0.2977,0,0,-0.2971,-0.3074,-0.3109,-0.3249,-0.3267,-0.3318,-0.3295,-0.3327,-0.3333,-0.3256,-0.3229,-0.3194,-0.3131,-0.3112,-0.3097,-0.3068,-0.3038,-0.3063,-0.307,-0.3055,-0.3022,-0.3026,-0.303,-0.2979,-0.2979,-0.2978,0,0,-0.2969,-0.308,-0.3155,-0.3213,-0.3295,-0.3316,-0.3334,-0.3373,-0.3355,-0.3356,-0.3294,-0.3261,-0.3216,-0.3164,-0.3133,-0.3173,-0.3095,-0.3171,-0.3192,-0.3164,-0.3167,-0.3169,-0.3076,-0.3069,-0.3162,-0.3162,-0.3162,0,-0.2925,-0.3063,-0.3163,-0.3253,-0.3287,-0.3322,-0.3369,-0.338,-0.3384,-0.3371,-0.3351,-0.3285,-0.3234,-0.3193,-0.3201,-0.3189,-0.3145,-0.3158,-0.3174,-0.3175,-0.3175,-0.308,-0.3071,-0.3166,-0.3166,-0.3165,-0.3165,0,-0.2975,-0.3083,-0.3126,-0.3262,-0.3309,-0.3357,-0.3417,-0.3431,-0.3422,-0.3421,-0.34,-0.3349,-0.3299,-0.329,-0.3251,-0.3235,-0.3192,-0.32,-0.3147,-0.3185,-0.3082,-0.3071,-0.3173,-0.3171,-0.317,-0.3169,0,0,-0.2888,-0.312,-0.3128,-0.3196,-0.3325,-0.3364,-0.34,-0.3442,-0.3441,-0.3447,-0.3426,-0.3388,-0.337,-0.3334,-0.3295,-0.3265,-0.3223,-0.3238,-0.3234,-0.3141,-0.3117,-0.2957,-0.2929,-0.3248,-0.3248,-0.3247,-0.3032,0,-0.2882,-0.3049,-0.3154,-0.324,-0.3331,-0.3388,-0.3414,-0.3448,-0.3457,-0.3452,-0.3421,-0.3395,-0.3387,-0.3359,-0.3339,-0.3251,-0.3205,-0.3277,-0.3096,-0.3089,-0.294,-0.2915,-0.2833,-0.2625,-0.3021,-0.302,-0.3018,0,-0.2907,-0.3022,-0.3138,-0.3278,-0.3312,-0.3346,-0.3392,-0.3422,-0.3441,-0.3445,-0.3438,-0.3421,-0.3366,-0.337,-0.3242,-0.3294,-0.3214,-0.3149,-0.314,-0.295,-0.291,-0.2657,-0.259,-0.2599,-0.3001,-0.3002,-0.3003,0,-0.2836,-0.3007,-0.3096,-0.3148,-0.3303,-0.3319,-0.3359,-0.3403,-0.3392,-0.3434,-0.3387,-0.3399,-0.3307,-0.3286,-0.3146,-0.3206,-0.2981,-0.3044,-0.2816,-0.2801,-0.2669,-0.2644,-0.2584,-0.2961,-0.2962,-0.2963,-0.2963,0,-0.2847,-0.2911,-0.3067,-0.3124,-0.3149,-0.3279,-0.3279,-0.3325,-0.3344,-0.3261,-0.3362,-0.3243,-0.3282,-0.3156,-0.3121,-0.2884,-0.2952,-0.2786,-0.2736,-0.2692,-0.2672,-0.2623,-0.2671,-0.2954,-0.2956,-0.2958,-0.2959,0,-0.2783,-0.2916,-0.2998,-0.3121,-0.3142,-0.315,-0.3189,-0.3161,-0.3221,-0.3104,-0.3097,-0.3073,-0.29,-0.2888,-0.2771,-0.2745,-0.2565,-0.2526,-0.2433,-0.2376,-0.2209,-0.2265,-0.2099,-0.2037,-0.2265,-0.2259,-0.2255,0,-0.2777,-0.2824,-0.2924,-0.2913,-0.2961,-0.299,-0.2966,-0.3071,-0.3013,-0.2926,-0.2808,-0.2676,-0.2488,-0.2287,-0.227,-0.2172,-0.2252,-0.2051,-0.2165,-0.2148,-0.2175,-0.2242,-0.2211,-0.2013,-0.2007,-0.2002,-0.1998,0,-0.2674,-0.2701,-0.2741,-0.271,-0.2695,-0.2693,-0.267,-0.2615,-0.2645,-0.2551,-0.2336,-0.2208,-0.2015,-0.1883,-0.1807,-0.1767,-0.203,-0.194,-0.1976,-0.1994,-0.2012,-0.1945,-0.2176,-0.1954,-0.1959,-0.1962,-0.1964,-0.1966,-0.2502,-0.2462,-0.2461,-0.2411,-0.2405,-0.2323,-0.2216,-0.2187,-0.2064,-0.1836,-0.1855,-0.1575,-0.1643,-0.1516,-0.1476,-0.1493,-0.1588,-0.1546,-0.1612,-0.1678,-0.1634,-0.1717,-0.1418,-0.1419,-0.1421,-0.1421,-0.1422,0,-0.2206,-0.2173,-0.2128,-0.2052,-0.1935,-0.2038,-0.1926,-0.1777,-0.1533,-0.1386,-0.1196,-0.1075,-0.1071,-0.1167,-0.1299,-0.1263,-0.1304,-0.1265,-0.1409,-0.1392,-0.1494,-0.1501,-0.1143,-0.1143,-0.1143,-0.1143,-0.1143,-0.1143,-0.2027,-0.1868,-0.185,-0.1577,-0.1533,-0.1315,-0.121,-0.1059,-0.0912,-0.0601,-0.0435,-0.0343,-0.0648,-0.1154,-0.1281,-0.1232,-0.1268,-0.1193,-0.1232,-0.1405,-0.144,-0.1475,-0.1494,-0.114,-0.114,-0.1107,-0.1107,-0.1107]},{"header":{"parameterUnit":"m.s-1","parameterCategory":2,"la1":30.2991,"la2":30.254,"lo1":-89.0895,"lo2":-89.0444,"dy":0.0017,"dx":0.0017,"nx":28,"ny":28,"refTime":"2025-05-28T03:00:00:Z","depth":"0","parameterNumber":3,"parameterNumberName":"V-component_of_CURRENTS"},"data":[0,0,0,0,0,0,0,0,0,0,0,0,0,0,0,0,0,0,0,0,0,0,0,0,0,0,0,0,0,0,0,0,0,0,0,0,0,0,0,0,0,0,0,0,0,0,0,0,0,0,0,0,0,0,0,0,0,0,-0.0531,-0.0531,0,-0.0446,-0.0445,-0.0444,-0.0349,-0.0348,-0.0346,-0.0345,-0.0195,-0.0192,-0.019,0,0,0,0,0,0,0,0,0,0,0,0,0,-0.0498,-0.05,-0.0531,-0.0531,-0.053,-0.0446,-0.0445,-0.0443,-0.0349,-0.0347,-0.0346,-0.0345,-0.0196,-0.0193,-0.0189,0,0,0,0,0,0,0,0,0,0,0,0,0,-0.0471,-0.0501,-0.0532,-0.0474,-0.0468,-0.0446,-0.0445,-0.0443,-0.0349,-0.0347,-0.0346,-0.0344,-0.0197,-0.0193,-0.0189,-0.0199,0,0,-0.0176,-0.0174,0,0,0,0,0,0,0,0,-0.0473,-0.0473,-0.0483,-0.0478,-0.0471,-0.0408,-0.0378,-0.0359,-0.035,-0.0392,-0.0345,-0.0343,-0.0263,-0.0253,-0.0239,-0.0192,-0.0186,-0.0175,-0.0173,-0.0171,-0.017,0,0,0,0,0,0,0,-0.0475,-0.0475,-0.0496,-0.0482,-0.0475,-0.0413,-0.0408,-0.0374,-0.0336,-0.0389,-0.0382,-0.0376,-0.0259,-0.0244,-0.0235,-0.0183,-0.0176,-0.0172,-0.0169,-0.0167,-0.0091,-0.0091,0,0,0,0,0,0,-0.0498,-0.0478,-0.0498,-0.0493,-0.047,-0.0416,-0.041,-0.0428,-0.0338,-0.0323,-0.0378,-0.0372,-0.0252,-0.024,-0.0229,-0.022,-0.0171,-0.0167,-0.0165,-0.009,-0.0091,-0.0091,0,0,0,0,0,0,-0.0498,-0.0502,-0.0502,-0.0483,-0.0479,-0.0419,-0.044,-0.0428,-0.0409,-0.0331,-0.0314,-0.0371,-0.025,-0.0235,-0.0201,-0.0214,-0.0165,-0.0161,-0.009,-0.009,-0.0091,-0.0211,0,0,0,0,0,0,-0.0498,-0.0503,-0.0524,-0.0486,-0.0481,-0.0506,-0.0442,-0.0427,-0.0409,-0.0401,-0.032,-0.0304,-0.0248,-0.0208,-0.0197,-0.0207,-0.0158,-0.0089,-0.009,-0.0091,-0.0207,-0.0216,-0.0224,0,0,0,0,0,-0.0498,-0.0551,-0.0526,-0.0528,-0.0513,-0.0508,-0.05,-0.0448,-0.0411,-0.042,-0.0357,-0.0306,-0.0205,-0.0206,-0.0192,-0.0201,-0.0088,-0.009,-0.0091,-0.0203,-0.0214,-0.0224,0,0,0,0,0,0,-0.0543,-0.0545,-0.0517,-0.0565,-0.054,-0.0493,-0.0502,-0.046,-0.0418,-0.0406,-0.0321,-0.0302,-0.0271,-0.0225,-0.0227,-0.018,-0.0136,-0.0135,-0.0225,-0.0236,-0.0244,-0.0271,-0.0154,0,0,0,0,0,-0.0565,-0.0604,-0.0577,-0.0609,-0.0608,-0.0553,-0.0543,-0.0508,-0.0467,-0.0446,-0.0385,-0.032,-0.0269,-0.0244,-0.0194,-0.0181,-0.009,-0.0174,-0.0183,-0.0191,-0.0203,-0.0075,-0.0073,-0.0095,-0.0095,-0.0095,0,0,-0.058,-0.0593,-0.0606,-0.062,-0.0597,-0.0624,-0.0543,-0.0544,-0.0547,-0.0438,-0.0425,-0.0351,-0.0271,-0.0247,-0.0229,-0.0209,-0.0134,-0.0193,-0.02,-0.0207,-0.0076,-0.0074,-0.0072,-0.0096,-0.0096,-0.0096,0,0,-0.0667,-0.0654,-0.0726,-0.0724,-0.0716,-0.0678,-0.0684,-0.0643,-0.0604,-0.0586,-0.0497,-0.0433,-0.0373,-0.0306,-0.0268,-0.0297,-0.0183,-0.0282,-0.0351,-0.0228,-0.0225,-0.0221,-0.009,-0.0074,-0.0289,-0.0289,-0.0289,0,-0.0685,-0.0776,-0.0738,-0.0811,-0.0813,-0.0714,-0.0773,-0.0729,-0.0672,-0.0633,-0.06,-0.0463,-0.04,-0.0339,-0.0353,-0.0317,-0.0225,-0.0321,-0.0239,-0.0233,-0.0227,-0.0094,-0.0074,-0.0295,-0.0294,-0.0294,-0.0293,0,-0.0823,-0.0893,-0.0934,-0.0987,-0.098,-0.101,-0.0947,-0.0912,-0.0842,-0.0777,-0.0694,-0.0591,-0.0501,-0.0473,-0.043,-0.036,-0.0299,-0.0262,-0.0215,-0.0232,-0.0091,-0.0068,-0.0304,-0.0301,-0.03,-0.0298,0,0,-0.0862,-0.1009,-0.1019,-0.1074,-0.1074,-0.1076,-0.1069,-0.1019,-0.0978,-0.0895,-0.0824,-0.0742,-0.0646,-0.0596,-0.0506,-0.0415,-0.0294,-0.0342,-0.0332,-0.0218,-0.0007,0.0071,0.0104,-0.0239,-0.0236,-0.0234,0.008,0,-0.0974,-0.1172,-0.1184,-0.1293,-0.1372,-0.1276,-0.1262,-0.1187,-0.1089,-0.0986,-0.0838,-0.0741,-0.0703,-0.0635,-0.0547,-0.0331,-0.0243,-0.0382,-0.0003,0.0008,0.0075,0.013,0.0167,0.0452,0.0103,0.0107,0.0109,0,-0.111,-0.1216,-0.1391,-0.1452,-0.1463,-0.1485,-0.14,-0.1376,-0.1205,-0.1114,-0.0989,-0.0842,-0.0677,-0.0639,-0.0323,-0.0409,-0.0245,-0.0093,-0.0075,0.0051,0.0128,0.0413,0.0508,0.0643,0.0146,0.0143,0.014,0,-0.1185,-0.1347,-0.1488,-0.1518,-0.1564,-0.1569,-0.1542,-0.1418,-0.1342,-0.1175,-0.106,-0.0871,-0.0685,-0.0497,-0.0189,-0.0245,0.0191,0.0169,0.0388,0.0397,0.053,0.0545,0.0795,0.0362,0.0361,0.0361,0.036,0,-0.132,-0.1413,-0.1539,-0.1609,-0.1655,-0.1661,-0.1637,-0.1563,-0.1419,-0.129,-0.1128,-0.0943,-0.0635,-0.034,-0.0156,0.0225,0.0231,0.0397,0.0488,0.049,0.0497,0.0701,0.0723,0.0372,0.037,0.0368,0.0365,0,-0.1379,-0.1504,-0.1626,-0.1705,-0.1718,-0.1734,-0.1678,-0.1624,-0.1508,-0.1322,-0.125,-0.0909,-0.0513,-0.0201,0.0212,0.0339,0.0755,0.0754,0.0741,0.0822,0.108,0.1092,0.1447,0.1562,0.1027,0.1031,0.1034,0,-0.1434,-0.153,-0.1653,-0.168,-0.1716,-0.174,-0.1714,-0.1656,-0.1567,-0.1282,-0.1153,-0.074,-0.0377,0.0255,0.0563,0.0945,0.101,0.1154,0.1021,0.1125,0.1208,0.1203,0.1272,0.1171,0.1175,0.1178,0.1181,0,-0.1436,-0.1487,-0.1562,-0.164,-0.1669,-0.1682,-0.1652,-0.1596,-0.1466,-0.1324,-0.1001,-0.0701,-0.0048,0.0468,0.0968,0.1146,0.1248,0.1231,0.1365,0.136,0.1352,0.1497,0.0931,0.1211,0.1208,0.1206,0.1204,0.1203,-0.1348,-0.1386,-0.1477,-0.1526,-0.1564,-0.1556,-0.1512,-0.1461,-0.1339,-0.1065,-0.0869,-0.0392,0.0339,0.1075,0.1269,0.1625,0.1551,0.1685,0.1706,0.1703,0.1764,0.1254,0.1604,0.1603,0.1603,0.1602,0.1602,0,-0.1193,-0.1264,-0.1326,-0.1391,-0.1383,-0.1449,-0.1385,-0.1298,-0.1135,-0.0953,-0.0675,0.0163,0.0829,0.1378,0.1904,0.2073,0.2076,0.2152,0.2142,0.2201,0.1801,0.1751,0.2117,0.2117,0.2117,0.2117,0.2117,0.2117,-0.1107,-0.1129,-0.1195,-0.1171,-0.1207,-0.1146,-0.1091,-0.0993,-0.0844,-0.0459,-0.0059,0.0313,0.1132,0.1949,0.2417,0.245,0.2599,0.2584,0.2686,0.2359,0.2315,0.2273,0.2234,0.2696,0.2696,0.3076,0.308,0.3082]}],[{"header":{"parameterUnit":"m.s-1","parameterCategory":2,"la1":30.2991,"la2":30.254,"lo1":-89.0895,"lo2":-89.0444,"dy":0.0017,"dx":0.0017,"nx":28,"ny":28,"refTime":"2025-05-28T03:00:00:Z","depth":"2","parameterNumber":2,"parameterNumberName":"U-component_of_CURRENTS"},"data":[0,0,0,0,0,0,0,0,0,0,0,0,0,0,0,0,0,0,0,0,0,0,0,0,0,0,0,0,0,0,0,0,0,0,0,0,0,0,0,0,0,0,0,0,0,0,0,0,0,0,0,0,0,0,0,0,0,0,-0.2596,-0.2596,0,-0.2657,-0.2658,-0.2659,-0.2636,-0.2635,-0.2633,-0.2632,-0.2766,-0.277,-0.2775,0,0,0,0,0,0,0,0,0,0,0,0,0,-0.2548,-0.2549,-0.2596,-0.2596,-0.2597,-0.2657,-0.2658,-0.2659,-0.2637,-0.2635,-0.2633,-0.2631,-0.2764,-0.277,-0.2776,0,0,0,0,0,0,0,0,0,0,0,0,0,-0.2586,-0.2549,-0.2595,-0.2592,-0.2592,-0.2657,-0.2658,-0.2659,-0.2637,-0.2635,-0.2632,-0.263,-0.2762,-0.2769,-0.2776,-0.2867,0,0,-0.2799,-0.2802,0,0,0,0,0,0,0,0,-0.2584,-0.2588,-0.2592,-0.2593,-0.2593,-0.2636,-0.2691,-0.2732,-0.2637,-0.2621,-0.2632,-0.2629,-0.273,-0.274,-0.2757,-0.2873,-0.2879,-0.28,-0.2804,-0.2807,-0.281,0,0,0,0,0,0,0,-0.2581,-0.2586,-0.2621,-0.2593,-0.2594,-0.2619,-0.2621,-0.2699,-0.2689,-0.2622,-0.2621,-0.2627,-0.273,-0.275,-0.276,-0.2881,-0.28,-0.2806,-0.2811,-0.2814,-0.304,-0.3042,0,0,0,0,0,0,-0.257,-0.2583,-0.2619,-0.2623,-0.2582,-0.2621,-0.2623,-0.2625,-0.2687,-0.2693,-0.2629,-0.2625,-0.2738,-0.2751,-0.2765,-0.2817,-0.2807,-0.2814,-0.2819,-0.3039,-0.3041,-0.3042,0,0,0,0,0,0,-0.2568,-0.2572,-0.2617,-0.2604,-0.2611,-0.2623,-0.2626,-0.2628,-0.2643,-0.2691,-0.2698,-0.2641,-0.2737,-0.2754,-0.2822,-0.2824,-0.2818,-0.2824,-0.3037,-0.3039,-0.3042,-0.296,0,0,0,0,0,0,-0.2567,-0.2571,-0.2573,-0.2603,-0.2611,-0.2643,-0.2628,-0.263,-0.265,-0.2646,-0.2705,-0.2715,-0.2736,-0.2811,-0.283,-0.2834,-0.283,-0.3035,-0.3038,-0.3041,-0.2961,-0.296,-0.2959,0,0,0,0,0,-0.2565,-0.2574,-0.2573,-0.2577,-0.2611,-0.2643,-0.265,-0.2653,-0.2653,-0.2659,-0.2697,-0.2713,-0.2842,-0.2819,-0.284,-0.2847,-0.3033,-0.3037,-0.3041,-0.2962,-0.296,-0.2959,0,0,0,0,0,0,-0.2557,-0.2574,-0.2572,-0.2586,-0.2607,-0.2638,-0.265,-0.2663,-0.2701,-0.2701,-0.2742,-0.2756,-0.2802,-0.286,-0.2832,-0.2925,-0.2939,-0.2947,-0.2872,-0.2871,-0.287,-0.2863,-0.2836,0,0,0,0,0,-0.2557,-0.2564,-0.2587,-0.2598,-0.2607,-0.2634,-0.265,-0.2657,-0.2693,-0.2706,-0.2746,-0.2799,-0.284,-0.288,-0.2923,-0.3002,-0.3004,-0.3022,-0.302,-0.3019,-0.3031,-0.3008,-0.3003,-0.3054,-0.3054,-0.3054,0,0,-0.2559,-0.2568,-0.2573,-0.2597,-0.2613,-0.264,-0.2638,-0.2664,-0.2689,-0.2722,-0.2771,-0.2792,-0.2856,-0.2904,-0.2935,-0.2953,-0.3007,-0.3023,-0.302,-0.3034,-0.301,-0.3005,-0.2999,-0.3056,-0.3056,-0.3056,0,0,-0.2565,-0.2573,-0.2578,-0.2601,-0.2625,-0.2648,-0.2657,-0.2693,-0.2703,-0.2762,-0.2769,-0.2787,-0.2895,-0.2904,-0.2933,-0.297,-0.2984,-0.3004,-0.301,-0.2986,-0.298,-0.2975,-0.2959,-0.2953,-0.3021,-0.3021,-0.3021,0,-0.2561,-0.2574,-0.2587,-0.2605,-0.2629,-0.2652,-0.2678,-0.2705,-0.2758,-0.2777,-0.2769,-0.2854,-0.2883,-0.2927,-0.2926,-0.2959,-0.2963,-0.2997,-0.2977,-0.2973,-0.2969,-0.2954,-0.2948,-0.3018,-0.3018,-0.3018,-0.3019,0,-0.2572,-0.259,-0.26,-0.2627,-0.2657,-0.2684,-0.2722,-0.2753,-0.2775,-0.2796,-0.2829,-0.2847,-0.2897,-0.2901,-0.2929,-0.2933,-0.2948,-0.2951,-0.2962,-0.2957,-0.2944,-0.2939,-0.3013,-0.3014,-0.3015,-0.3016,0,0,-0.2537,-0.2593,-0.2594,-0.2618,-0.2672,-0.2699,-0.275,-0.2795,-0.283,-0.2846,-0.2876,-0.2896,-0.289,-0.2924,-0.2936,-0.2922,-0.2871,-0.2938,-0.2939,-0.2891,-0.2831,-0.2732,-0.2718,-0.2869,-0.2868,-0.2868,-0.2826,0,-0.2535,-0.2569,-0.2606,-0.2657,-0.2681,-0.2735,-0.2786,-0.2834,-0.2868,-0.2905,-0.2895,-0.2928,-0.2908,-0.2924,-0.2896,-0.2888,-0.286,-0.2883,-0.2874,-0.2874,-0.2758,-0.2709,-0.2493,-0.2429,-0.2822,-0.2821,-0.2821,0,-0.2519,-0.2551,-0.2588,-0.2675,-0.2692,-0.2733,-0.2816,-0.2866,-0.2923,-0.295,-0.2961,-0.297,-0.2959,-0.2933,-0.288,-0.2903,-0.2866,-0.284,-0.2838,-0.2774,-0.2766,-0.2506,-0.2406,-0.2813,-0.2814,-0.2815,-0.2815,0,-0.2465,-0.2537,-0.2567,-0.2594,-0.2693,-0.273,-0.2789,-0.2867,-0.2918,-0.2973,-0.302,-0.2994,-0.3022,-0.2938,-0.288,-0.2891,-0.281,-0.2814,-0.2684,-0.2678,-0.2508,-0.2487,-0.2757,-0.2757,-0.2757,-0.2757,-0.2757,0,-0.2438,-0.2465,-0.2545,-0.2563,-0.2616,-0.2703,-0.277,-0.2831,-0.2924,-0.2982,-0.3031,-0.3043,-0.3031,-0.299,-0.2889,-0.276,-0.2807,-0.2669,-0.2649,-0.2476,-0.2453,-0.2812,-0.2819,-0.2756,-0.2756,-0.2756,-0.2757,0,-0.2366,-0.2417,-0.2454,-0.2553,-0.2583,-0.2618,-0.2752,-0.2796,-0.2922,-0.3001,-0.3026,-0.3104,-0.3033,-0.2982,-0.2877,-0.28,-0.2659,-0.2604,-0.2406,-0.2361,-0.2549,-0.2553,-0.2455,-0.2451,-0.2448,-0.2445,-0.2442,0,-0.2329,-0.2335,-0.2414,-0.2434,-0.2476,-0.2554,-0.2597,-0.2744,-0.2809,-0.2993,-0.3008,-0.3041,-0.2968,-0.2795,-0.2625,-0.2429,-0.2539,-0.2201,-0.2164,-0.2521,-0.2512,-0.2522,-0.2531,-0.1911,-0.1905,-0.1899,-0.1895,0,-0.2247,-0.2265,-0.2288,-0.2338,-0.2376,-0.2439,-0.2534,-0.2589,-0.2772,-0.2827,-0.2851,-0.2809,-0.2712,-0.2405,-0.2257,-0.2114,-0.2206,-0.2086,-0.2485,-0.2025,-0.2004,-0.1998,-0.2025,-0.1847,-0.1852,-0.1855,-0.1858,-0.186,-0.2155,-0.2144,-0.2172,-0.2212,-0.2288,-0.2333,-0.2317,-0.2391,-0.2428,-0.2471,-0.2591,-0.2429,-0.2381,-0.1953,-0.1801,-0.17,-0.1853,-0.1784,-0.1802,-0.1825,-0.1773,-0.1747,-0.1533,-0.1536,-0.1538,-0.154,-0.1542,0,-0.2024,-0.2031,-0.2056,-0.2112,-0.2158,-0.2242,-0.2277,-0.2184,-0.2113,-0.213,-0.2094,-0.1814,-0.1605,-0.1532,-0.1281,-0.1255,-0.1258,-0.1224,-0.1227,-0.1273,-0.1315,-0.1239,-0.0856,-0.0855,-0.0853,-0.0852,0,0,-0.1944,-0.1901,-0.1915,-0.195,-0.2033,-0.2022,-0.1993,-0.1801,-0.1723,-0.1502,-0.1388,-0.1492,-0.1475,-0.1156,-0.1097,-0.094,-0.1109,-0.0891,-0.1434,-0.1484,-0.1524,-0.162,-0.1553,0,0,0,0,0]},{"header":{"parameterUnit":"m.s-1","parameterCategory":2,"la1":30.2991,"la2":30.254,"lo1":-89.0895,"lo2":-89.0444,"dy":0.0017,"dx":0.0017,"nx":28,"ny":28,"refTime":"2025-05-28T03:00:00:Z","depth":"2","parameterNumber":3,"parameterNumberName":"V-component_of_CURRENTS"},"data":[0,0,0,0,0,0,0,0,0,0,0,0,0,0,0,0,0,0,0,0,0,0,0,0,0,0,0,0,0,0,0,0,0,0,0,0,0,0,0,0,0,0,0,0,0,0,0,0,0,0,0,0,0,0,0,0,0,0,-0.0288,-0.0287,0,-0.0192,-0.0191,-0.0189,-0.012,-0.012,-0.012,-0.0119,0.0071,0.0075,0.008,0,0,0,0,0,0,0,0,0,0,0,0,0,-0.035,-0.035,-0.0288,-0.0287,-0.0286,-0.0192,-0.0191,-0.0189,-0.0121,-0.012,-0.012,-0.0119,0.0069,0.0075,0.008,0,0,0,0,0,0,0,0,0,0,0,0,0,-0.0294,-0.035,-0.0288,-0.0242,-0.0237,-0.0193,-0.0191,-0.0189,-0.0121,-0.012,-0.0119,-0.0119,0.0067,0.0074,0.0081,0.0114,0,0,0.0103,0.0106,0,0,0,0,0,0,0,0,-0.0297,-0.0291,-0.025,-0.0245,-0.0239,-0.017,-0.0143,-0.0084,-0.0121,-0.0162,-0.0119,-0.0119,-0.0003,0.001,0.0029,0.0122,0.0131,0.0103,0.0108,0.0111,0.0113,0,0,0,0,0,0,0,-0.0301,-0.0295,-0.0248,-0.0249,-0.0242,-0.0205,-0.0197,-0.0131,-0.0083,-0.0159,-0.0154,-0.0147,0.0001,0.0021,0.0034,0.0133,0.0103,0.0109,0.0114,0.0116,0.0318,0.0319,0,0,0,0,0,0,-0.0321,-0.0299,-0.0251,-0.0245,-0.027,-0.0205,-0.0196,-0.0191,-0.0086,-0.0071,-0.0148,-0.0144,0.0009,0.0025,0.0041,0.0097,0.0111,0.0117,0.0121,0.0317,0.0318,0.0319,0,0,0,0,0,0,-0.0323,-0.0318,-0.0255,-0.0271,-0.0261,-0.0205,-0.02,-0.0189,-0.0169,-0.0079,-0.0062,-0.0139,0.001,0.0031,0.0099,0.0104,0.012,0.0127,0.0315,0.0317,0.0319,0.0202,0,0,0,0,0,0,-0.0325,-0.0319,-0.0326,-0.0273,-0.0261,-0.0236,-0.02,-0.0188,-0.0167,-0.0161,-0.0066,-0.0048,0.0012,0.0087,0.0106,0.0114,0.0132,0.0314,0.0316,0.0318,0.0204,0.0199,0.0195,0,0,0,0,0,-0.0328,-0.0342,-0.0327,-0.0321,-0.0271,-0.0237,-0.0228,-0.0184,-0.0167,-0.0163,-0.0096,-0.0051,0.0114,0.0093,0.0115,0.0125,0.0313,0.0316,0.0318,0.0206,0.02,0.0195,0,0,0,0,0,0,-0.0374,-0.0335,-0.0317,-0.0319,-0.0285,-0.0227,-0.0222,-0.0192,-0.0137,-0.013,-0.0045,-0.0022,0.0036,0.0105,0.008,0.0195,0.0225,0.0232,0.0133,0.0128,0.0124,0.0113,0.0138,0,0,0,0,0,-0.0389,-0.0391,-0.0342,-0.0346,-0.0331,-0.0279,-0.0261,-0.0232,-0.0177,-0.0153,-0.0086,-0.0004,0.0064,0.0112,0.0177,0.0241,0.0291,0.0268,0.0264,0.0259,0.0268,0.0329,0.0329,0.0327,0.0327,0.0327,0,0,-0.0411,-0.039,-0.0391,-0.0357,-0.0327,-0.031,-0.0266,-0.0247,-0.0225,-0.0139,-0.009,-0.0029,0.0074,0.0136,0.0172,0.0195,0.0285,0.0262,0.0257,0.0269,0.0331,0.0331,0.0331,0.0329,0.0329,0.0329,0,0,-0.0452,-0.0434,-0.0445,-0.042,-0.0383,-0.0345,-0.0343,-0.0285,-0.0251,-0.0199,-0.0134,-0.0069,0.0041,0.0113,0.0165,0.0182,0.0245,0.0209,0.0191,0.0248,0.0247,0.0248,0.0294,0.03,0.0221,0.0221,0.0221,0,-0.0479,-0.0484,-0.0443,-0.0442,-0.0428,-0.0365,-0.0366,-0.032,-0.0247,-0.0211,-0.0195,-0.0038,0.0033,0.0126,0.013,0.0169,0.0208,0.0191,0.0237,0.0239,0.0241,0.0289,0.0297,0.0216,0.0217,0.0217,0.0218,0,-0.0519,-0.0523,-0.0528,-0.0503,-0.048,-0.0475,-0.0408,-0.0374,-0.0327,-0.0269,-0.0184,-0.009,0.0011,0.0041,0.0091,0.0156,0.0178,0.0203,0.0236,0.0233,0.0285,0.0295,0.0208,0.021,0.0212,0.0213,0,0,-0.0576,-0.0561,-0.0563,-0.0566,-0.0515,-0.0503,-0.046,-0.0397,-0.0362,-0.0281,-0.0224,-0.0113,-0.0058,0.0006,0.0078,0.0136,0.0171,0.0173,0.0178,0.0192,0.0288,0.0312,0.0326,0.0193,0.0195,0.0196,0.031,0,-0.0618,-0.0646,-0.0615,-0.063,-0.0634,-0.0566,-0.0533,-0.0465,-0.0388,-0.0315,-0.0199,-0.0123,-0.0069,-0.0029,0.0037,0.0142,0.0196,0.0138,0.0315,0.032,0.0319,0.0338,0.0298,0.0397,0.032,0.0322,0.0323,0,-0.0656,-0.0675,-0.0704,-0.0695,-0.0689,-0.0683,-0.0617,-0.0578,-0.0448,-0.0386,-0.0278,-0.0182,-0.0065,-0.0036,0.0141,0.0099,0.0184,0.0259,0.0265,0.034,0.0363,0.0396,0.0419,0.034,0.0339,0.0338,0.0337,0,-0.0714,-0.0729,-0.0761,-0.0759,-0.0734,-0.0729,-0.0708,-0.0602,-0.0562,-0.0428,-0.0367,-0.022,-0.0114,-0.0011,0.0159,0.0146,0.0344,0.0348,0.0452,0.0455,0.0486,0.0489,0.046,0.046,0.046,0.046,0.0459,0,-0.0762,-0.0787,-0.0798,-0.0818,-0.0856,-0.0803,-0.0801,-0.0741,-0.0641,-0.0549,-0.0415,-0.0282,-0.01,0.0052,0.0152,0.0343,0.0344,0.0459,0.0492,0.0445,0.0442,0.0452,0.0449,0.0464,0.0463,0.0462,0.0461,0,-0.0813,-0.0815,-0.0864,-0.0877,-0.0885,-0.0914,-0.0895,-0.088,-0.0761,-0.0632,-0.0587,-0.0321,-0.0105,0.0049,0.0268,0.0369,0.0509,0.0571,0.0499,0.0522,0.0578,0.0569,0.0694,0.0696,0.0698,0.0699,0.07,0,-0.0841,-0.0871,-0.0929,-0.0979,-0.0995,-0.1027,-0.1043,-0.0961,-0.0916,-0.0614,-0.0549,-0.0283,-0.0063,0.0235,0.0415,0.0572,0.0576,0.0658,0.0632,0.0586,0.0606,0.0594,0.0582,0.0623,0.0624,0.0624,0.0624,0,-0.0907,-0.0925,-0.0977,-0.1084,-0.1136,-0.1171,-0.1167,-0.1134,-0.0951,-0.0791,-0.0464,-0.0256,0.0088,0.0316,0.0504,0.0596,0.0615,0.0673,0.0666,0.0565,0.0528,0.0544,0.0534,0.0628,0.0627,0.0627,0.0627,0.0627,-0.0962,-0.1026,-0.1102,-0.1199,-0.1263,-0.1278,-0.1262,-0.119,-0.1057,-0.0748,-0.0478,-0.0146,0.0078,0.035,0.0523,0.0689,0.0686,0.0721,0.0717,0.0713,0.0679,0.0646,0.0762,0.0762,0.0762,0.0763,0.0763,0,-0.1039,-0.1112,-0.1212,-0.1317,-0.1396,-0.1382,-0.1318,-0.1246,-0.1054,-0.0742,-0.0439,-0.0145,0.009,0.0314,0.0585,0.0743,0.0717,0.0765,0.0696,0.0692,0.0689,0.065,0.0728,0.0728,0.0729,0.0729,0,0,-0.1089,-0.1199,-0.1251,-0.1407,-0.1465,-0.1465,-0.1396,-0.1244,-0.1021,-0.0685,-0.0425,-0.0207,0.0101,0.0253,0.0447,0.0626,0.0622,0.0634,0.0643,0.0537,0.0532,0.0642,0.0577,0,0,0,0,0]}],[{"header":{"parameterUnit":"m.s-1","parameterCategory":2,"la1":30.2991,"la2":30.254,"lo1":-89.0895,"lo2":-89.0444,"dy":0.0017,"dx":0.0017,"nx":28,"ny":28,"refTime":"2025-05-28T03:00:00:Z","depth":"4","parameterNumber":2,"parameterNumberName":"U-component_of_CURRENTS"},"data":[0,0,0,0,0,0,0,0,0,0,0,0,0,0,0,0,0,0,0,0,0,0,0,0,0,0,0,0,0,0,0,0,0,0,0,0,0,0,0,0,0,0,0,0,0,0,0,0,0,0,0,0,0,0,0,0,0,0,-0.187,-0.1871,0,-0.1924,-0.1925,-0.1925,-0.1949,-0.1949,-0.1949,-0.1949,-0.1991,-0.1992,-0.1993,0,0,0,0,0,0,0,0,0,0,0,0,0,-0.1798,-0.1799,-0.187,-0.1871,-0.1872,-0.1924,-0.1925,-0.1925,-0.1949,-0.1949,-0.1949,-0.1949,-0.1991,-0.1992,-0.1993,0,0,0,0,0,0,0,0,0,0,0,0,0,-0.1836,-0.1799,-0.187,-0.1892,-0.1895,-0.1924,-0.1925,-0.1925,-0.1949,-0.1949,-0.1949,-0.1949,-0.199,-0.1992,-0.1993,-0.1997,0,0,-0.1998,-0.1998,0,0,0,0,0,0,0,0,-0.1833,-0.1838,-0.1888,-0.1891,-0.1894,-0.1932,-0.1915,-0.195,-0.1948,-0.1925,-0.1949,-0.1949,-0.1972,-0.1975,-0.1981,-0.1999,-0.2001,-0.1998,-0.1999,-0.1999,-0.2,0,0,0,0,0,0,0,-0.1831,-0.1836,-0.1889,-0.1889,-0.1893,-0.1903,-0.1908,-0.1921,-0.1944,-0.1927,-0.193,-0.194,-0.1973,-0.1979,-0.1982,-0.2002,-0.1998,-0.1999,-0.2,-0.2,-0.2071,-0.2072,0,0,0,0,0,0,-0.1829,-0.1833,-0.1887,-0.1891,-0.1867,-0.1904,-0.191,-0.1918,-0.1944,-0.195,-0.194,-0.1941,-0.1977,-0.198,-0.1984,-0.205,-0.1999,-0.2001,-0.2001,-0.207,-0.2071,-0.2072,0,0,0,0,0,0,-0.1827,-0.1833,-0.1885,-0.1866,-0.1873,-0.1905,-0.1914,-0.1919,-0.1954,-0.1955,-0.1959,-0.1974,-0.1977,-0.1982,-0.202,-0.2049,-0.2001,-0.2003,-0.2069,-0.207,-0.2072,-0.2144,0,0,0,0,0,0,-0.1825,-0.1832,-0.1851,-0.1865,-0.1874,-0.1917,-0.1914,-0.1919,-0.196,-0.1963,-0.1985,-0.1987,-0.1978,-0.2018,-0.2022,-0.205,-0.2004,-0.2067,-0.2069,-0.2071,-0.214,-0.2148,-0.2154,0,0,0,0,0,-0.1822,-0.1841,-0.1852,-0.1859,-0.1895,-0.1918,-0.1924,-0.1945,-0.1962,-0.1979,-0.1999,-0.1988,-0.2032,-0.2021,-0.2024,-0.2054,-0.2066,-0.2069,-0.2071,-0.2137,-0.2146,-0.2154,0,0,0,0,0,0,-0.1823,-0.1846,-0.1858,-0.1885,-0.1909,-0.1924,-0.195,-0.1966,-0.1996,-0.2009,-0.2008,-0.2012,-0.205,-0.2044,-0.2032,-0.2078,-0.2045,-0.2048,-0.2094,-0.2102,-0.2109,-0.2108,-0.2005,0,0,0,0,0,-0.1832,-0.1853,-0.1874,-0.1901,-0.1915,-0.194,-0.196,-0.1976,-0.1999,-0.2014,-0.2031,-0.2046,-0.2057,-0.2076,-0.2078,-0.2117,-0.2095,-0.2134,-0.2141,-0.2147,-0.2149,-0.2145,-0.2152,-0.208,-0.2079,-0.2079,0,0,-0.1843,-0.1858,-0.1874,-0.1903,-0.1925,-0.1954,-0.1953,-0.1992,-0.2025,-0.2013,-0.2071,-0.2071,-0.207,-0.2102,-0.212,-0.2109,-0.2157,-0.215,-0.2156,-0.2153,-0.2148,-0.2155,-0.2161,-0.2081,-0.2081,-0.2081,0,0,-0.186,-0.1889,-0.1907,-0.1932,-0.197,-0.1986,-0.2005,-0.2038,-0.2065,-0.2114,-0.2107,-0.2129,-0.2162,-0.216,-0.2163,-0.2213,-0.2186,-0.2218,-0.2266,-0.2263,-0.2269,-0.2273,-0.2255,-0.2258,-0.223,-0.2231,-0.2231,0,-0.1875,-0.1898,-0.1919,-0.1944,-0.1973,-0.2005,-0.2036,-0.2069,-0.2114,-0.2137,-0.2143,-0.2183,-0.2185,-0.2214,-0.2231,-0.2229,-0.2219,-0.2237,-0.2272,-0.2276,-0.228,-0.226,-0.2262,-0.2234,-0.2234,-0.2233,-0.2233,0,-0.1892,-0.193,-0.1947,-0.1989,-0.2022,-0.2057,-0.21,-0.2144,-0.2184,-0.2208,-0.2255,-0.2258,-0.2277,-0.2285,-0.2279,-0.2309,-0.229,-0.2275,-0.2252,-0.2292,-0.2268,-0.2269,-0.224,-0.2238,-0.2237,-0.2236,0,0,-0.1871,-0.1944,-0.1954,-0.1984,-0.2051,-0.2074,-0.2144,-0.2197,-0.224,-0.2287,-0.2332,-0.2357,-0.2358,-0.2361,-0.2354,-0.2363,-0.2382,-0.2343,-0.2341,-0.2326,-0.2371,-0.2203,-0.2188,-0.238,-0.2381,-0.2381,-0.2344,0,-0.188,-0.1929,-0.197,-0.2035,-0.2065,-0.2126,-0.2184,-0.2242,-0.2293,-0.2344,-0.2365,-0.2397,-0.2389,-0.2401,-0.2412,-0.2384,-0.2388,-0.2393,-0.2333,-0.2331,-0.2178,-0.2184,-0.2383,-0.2344,-0.2344,-0.2344,-0.2344,0,-0.1869,-0.1909,-0.1969,-0.2055,-0.2075,-0.2127,-0.2217,-0.2271,-0.2351,-0.2389,-0.2432,-0.2445,-0.247,-0.2453,-0.244,-0.2447,-0.2418,-0.2396,-0.2394,-0.221,-0.2163,-0.2295,-0.2345,-0.2345,-0.2345,-0.2345,-0.2345,0,-0.1815,-0.1904,-0.1952,-0.1983,-0.2086,-0.2136,-0.2196,-0.2284,-0.2323,-0.2414,-0.2441,-0.2482,-0.249,-0.2479,-0.2436,-0.2448,-0.2403,-0.2406,-0.2227,-0.2215,-0.2348,-0.2343,-0.2392,-0.2392,-0.2392,-0.2392,-0.2392,0,-0.178,-0.1824,-0.1938,-0.1962,-0.2024,-0.2114,-0.218,-0.225,-0.2335,-0.2353,-0.2452,-0.2451,-0.2499,-0.2477,-0.2447,-0.2319,-0.2406,-0.2223,-0.2189,-0.2379,-0.2378,-0.2348,-0.2344,-0.2391,-0.2391,-0.2391,-0.2391,0,-0.1698,-0.1777,-0.1834,-0.1955,-0.1995,-0.2036,-0.2147,-0.217,-0.2289,-0.2314,-0.234,-0.2427,-0.2393,-0.2403,-0.2371,-0.2294,-0.2215,-0.215,-0.2341,-0.232,-0.2033,-0.2034,-0.1951,-0.1945,-0.194,-0.1935,-0.1931,0,-0.1654,-0.1679,-0.1801,-0.1821,-0.1878,-0.1957,-0.1985,-0.2119,-0.2132,-0.2256,-0.2232,-0.2273,-0.2297,-0.2116,-0.2164,-0.2085,-0.2059,-0.2018,-0.2038,-0.201,-0.1987,-0.1995,-0.2002,-0.1923,-0.1921,-0.192,-0.1919,0,-0.1559,-0.1617,-0.1655,-0.1699,-0.1738,-0.177,-0.183,-0.1833,-0.1956,-0.2087,-0.2051,-0.2042,-0.2003,-0.1984,-0.1931,-0.1882,-0.2049,-0.1962,-0.1974,-0.1992,-0.1975,-0.1959,-0.1972,-0.19,-0.1903,-0.1904,-0.1906,0,-0.1476,-0.1472,-0.1519,-0.154,-0.1579,-0.1553,-0.1619,-0.1624,-0.1667,-0.1822,-0.1798,-0.1862,-0.1957,-0.1875,-0.1825,-0.1762,-0.1745,-0.1697,-0.1722,-0.1744,-0.1693,-0.1642,-0.1422,0,0,0,0,0,-0.138,-0.1348,-0.1351,-0.1347,-0.1377,-0.1397,-0.1485,-0.1556,-0.1692,-0.1598,-0.1698,-0.1654,-0.1616,-0.1667,-0.1554,-0.173,-0.1748,-0.1594,-0.1706,-0.1797,-0.1818,-0.1779,0,0,0,0,0,0,-0.1302,-0.1302,-0.129,-0.1175,-0.114,-0.114,-0.1191,-0.1288,-0.1261,-0.1423,-0.1404,-0.1534,-0.1514,-0.1627,-0.1509,-0.152,-0.1551,-0.165,-0.1645,-0.1784,-0.1804,-0.1821,-0.1788,0,0,0,0,0]},{"header":{"parameterUnit":"m.s-1","parameterCategory":2,"la1":30.2991,"la2":30.254,"lo1":-89.0895,"lo2":-89.0444,"dy":0.0017,"dx":0.0017,"nx":28,"ny":28,"refTime":"2025-05-28T03:00:00:Z","depth":"4","parameterNumber":3,"parameterNumberName":"V-component_of_CURRENTS"},"data":[0,0,0,0,0,0,0,0,0,0,0,0,0,0,0,0,0,0,0,0,0,0,0,0,0,0,0,0,0,0,0,0,0,0,0,0,0,0,0,0,0,0,0,0,0,0,0,0,0,0,0,0,0,0,0,0,0,0,-0.0204,-0.0203,0,-0.0147,-0.0147,-0.0146,-0.0099,-0.0099,-0.0098,-0.0098,-0.0003,-0.0,0.0002,0,0,0,0,0,0,0,0,0,0,0,0,0,-0.0236,-0.0236,-0.0204,-0.0203,-0.0203,-0.0148,-0.0147,-0.0146,-0.0099,-0.0099,-0.0098,-0.0098,-0.0003,-0.0001,0.0002,0,0,0,0,0,0,0,0,0,0,0,0,0,-0.0204,-0.0236,-0.0204,-0.0174,-0.0171,-0.0148,-0.0147,-0.0146,-0.0099,-0.0099,-0.0098,-0.0097,-0.0004,-0.0001,0.0002,0.0011,0,0,0.0012,0.0014,0,0,0,0,0,0,0,0,-0.0206,-0.0203,-0.0179,-0.0176,-0.0172,-0.0131,-0.0123,-0.0092,-0.0099,-0.0125,-0.0098,-0.0097,-0.0043,-0.0037,-0.0026,0.0015,0.0019,0.0013,0.0014,0.0016,0.0017,0,0,0,0,0,0,0,-0.0208,-0.0205,-0.018,-0.0178,-0.0174,-0.0151,-0.0146,-0.0117,-0.0086,-0.0123,-0.0119,-0.0115,-0.0041,-0.0029,-0.0023,0.0021,0.0012,0.0015,0.0017,0.0019,0.0081,0.0081,0,0,0,0,0,0,-0.022,-0.0207,-0.0182,-0.0179,-0.0189,-0.0151,-0.0145,-0.0144,-0.0087,-0.0079,-0.0116,-0.0113,-0.0035,-0.0027,-0.002,0.0013,0.0016,0.0019,0.0021,0.0082,0.0081,0.0081,0,0,0,0,0,0,-0.0221,-0.0219,-0.0184,-0.0192,-0.0187,-0.0152,-0.015,-0.0143,-0.0132,-0.0083,-0.0073,-0.0113,-0.0034,-0.0024,0.0004,0.0016,0.002,0.0023,0.0082,0.0081,0.0081,0.0065,0,0,0,0,0,0,-0.0223,-0.022,-0.0227,-0.0193,-0.0187,-0.0176,-0.015,-0.0142,-0.0131,-0.0127,-0.0077,-0.0067,-0.0033,-0.0001,0.0007,0.0021,0.0026,0.0082,0.0082,0.0081,0.0066,0.0065,0.0063,0,0,0,0,0,-0.0224,-0.0235,-0.0228,-0.0225,-0.0196,-0.0177,-0.0171,-0.0143,-0.0132,-0.0131,-0.0096,-0.0069,0.0002,0.0001,0.0011,0.0026,0.0083,0.0082,0.0081,0.0067,0.0065,0.0063,0,0,0,0,0,0,-0.0254,-0.0231,-0.0221,-0.0226,-0.0206,-0.0169,-0.0169,-0.015,-0.0122,-0.0119,-0.0071,-0.0059,-0.0034,-0.0008,-0.0009,0.0039,0.0046,0.0047,0.0032,0.003,0.0028,0.0034,0.0029,0,0,0,0,0,-0.0265,-0.027,-0.024,-0.0246,-0.0238,-0.0206,-0.0196,-0.0177,-0.0148,-0.0135,-0.0099,-0.0062,-0.0029,-0.0004,0.0021,0.0053,0.0083,0.0066,0.0064,0.0063,0.0072,0.0129,0.0134,0.0079,0.0079,0.0079,0,0,-0.0281,-0.0269,-0.0272,-0.0253,-0.0236,-0.0226,-0.0198,-0.0189,-0.0173,-0.0129,-0.0102,-0.0073,-0.0028,0.0005,0.002,0.0033,0.0089,0.0062,0.0061,0.0071,0.0129,0.0134,0.0139,0.0078,0.0078,0.0078,0,0,-0.0309,-0.0302,-0.031,-0.0296,-0.0276,-0.0252,-0.0252,-0.0217,-0.0194,-0.0168,-0.0132,-0.0091,-0.005,0.0,0.0028,0.0032,0.0068,0.0029,0.0044,0.0098,0.0104,0.0109,0.0135,0.0143,0.0042,0.0042,0.0042,0,-0.0329,-0.0334,-0.0311,-0.031,-0.0303,-0.0265,-0.0267,-0.0236,-0.0196,-0.017,-0.0166,-0.0081,-0.0045,0.0022,0.0025,0.0033,0.0054,0.0051,0.0098,0.0104,0.011,0.0136,0.0145,0.0041,0.0041,0.0041,0.0041,0,-0.0353,-0.0361,-0.0365,-0.0351,-0.0338,-0.0338,-0.0293,-0.0271,-0.0243,-0.0202,-0.0145,-0.0088,-0.0032,-0.0014,0.0011,0.0072,0.0068,0.008,0.0107,0.0115,0.0141,0.0151,0.004,0.004,0.0041,0.0041,0,0,-0.0391,-0.0385,-0.0389,-0.0396,-0.0363,-0.0359,-0.0324,-0.0279,-0.0256,-0.0197,-0.0154,-0.0077,-0.0039,-0.0006,0.0038,0.0097,0.0152,0.0105,0.0109,0.0137,0.025,0.0194,0.0199,0.0171,0.0173,0.0174,0.0245,0,-0.0419,-0.0443,-0.0421,-0.0439,-0.0446,-0.04,-0.0375,-0.0326,-0.0273,-0.0222,-0.0127,-0.0082,-0.0036,-0.0015,0.0058,0.012,0.0179,0.013,0.0233,0.0236,0.0191,0.021,0.0181,0.0252,0.0254,0.0256,0.0257,0,-0.0443,-0.0462,-0.0489,-0.0491,-0.0489,-0.0489,-0.0447,-0.0418,-0.0319,-0.0276,-0.0185,-0.012,-0.0014,0.0008,0.0159,0.0121,0.0186,0.024,0.0245,0.0209,0.0199,0.0247,0.0275,0.0274,0.0273,0.0271,0.027,0,-0.0487,-0.0505,-0.0536,-0.0537,-0.0527,-0.0528,-0.0516,-0.0439,-0.0417,-0.0311,-0.0284,-0.0139,-0.009,0.0035,0.0154,0.0156,0.0301,0.0318,0.0335,0.0331,0.0368,0.0362,0.0427,0.0427,0.0426,0.0426,0.0426,0,-0.0518,-0.0546,-0.0569,-0.0589,-0.0631,-0.0593,-0.0604,-0.0559,-0.0491,-0.0463,-0.0326,-0.0272,-0.0082,0.0027,0.0145,0.026,0.0299,0.0343,0.0353,0.0354,0.0346,0.0374,0.0367,0.0429,0.0428,0.0428,0.0427,0,-0.0552,-0.0564,-0.0615,-0.064,-0.0656,-0.0688,-0.0695,-0.0692,-0.0617,-0.0575,-0.0547,-0.0375,-0.023,-0.0055,0.0137,0.0221,0.0351,0.0381,0.035,0.0356,0.0348,0.0339,0.0418,0.0416,0.0415,0.0415,0.0414,0,-0.057,-0.06,-0.0673,-0.0723,-0.0744,-0.0787,-0.0814,-0.0766,-0.0751,-0.0636,-0.0618,-0.0468,-0.0343,-0.0102,0.0076,0.0292,0.032,0.0378,0.0396,0.0349,0.0352,0.0345,0.0337,0.0412,0.0412,0.0412,0.0411,0,-0.0613,-0.0645,-0.0695,-0.0796,-0.0858,-0.0912,-0.0938,-0.0934,-0.0858,-0.0804,-0.0661,-0.05,-0.0342,-0.0121,0.0032,0.0193,0.0342,0.0369,0.0373,0.039,0.0343,0.0345,0.034,0.0408,0.0408,0.0409,0.0409,0,-0.0655,-0.071,-0.0782,-0.0863,-0.0949,-0.0999,-0.1008,-0.0973,-0.0942,-0.0794,-0.0755,-0.054,-0.0403,-0.0175,-0.0026,0.0117,0.0163,0.0213,0.0226,0.0232,0.0157,0.0069,0.0065,0,0,0,0,0,-0.0693,-0.0754,-0.0839,-0.0933,-0.1013,-0.1048,-0.1069,-0.1052,-0.0983,-0.0895,-0.0812,-0.065,-0.0387,-0.0257,-0.0123,-0.0067,0.0161,0.009,0.0218,0.0388,0.0392,0.033,0,0,0,0,0,0,-0.0726,-0.0811,-0.0846,-0.0961,-0.1023,-0.1102,-0.1112,-0.1068,-0.0993,-0.0897,-0.075,-0.064,-0.0385,-0.0467,-0.0127,-0.0081,0.0013,0.0225,0.0227,0.0386,0.039,0.0393,0.033,0,0,0,0,0]}]]